Location: Colorado Springs
(38.8340°N, 104.8210°W)
Time: 14:07:39
(UTC-07:00)

Vanguard 3 - Pass Details

Date: 30 October 2017
Orbit: 509 x 3263 km, 33.4° (Epoch: 17 November)

Event Time Altitude Azimuth Distance (km) Brightness Sun altitude
Rises 09:06:51 0° 277° (W) 5,542 10.9 17.0°
Reaches altitude 10° 09:13:11 10° 257° (WSW) 3,854 10.3 18.0°
Maximum altitude 09:17:36 14° 230° (SW) 3,033 10.0 18.7°
Drops below altitude 10° 09:21:08 10° 200° (SSW) 2,922 10.3 19.3°
Sets 09:24:47 0° 174° (S) 3,446 11.0 19.8°
